Time,TemperatureF,DewpointF,PressureIn,WindDirection,WindDirectionDegrees,WindSpeedMPH,WindSpeedGustMPH,Humidity,HourlyPrecipIn,Conditions,Clouds,dailyrainin,SoftwareType,DateUTC
2013-10-20 00:00:00,51.0,48.2,29.50,SSW,208,4.0,4.0,90,0.00,,,0.06,Wunderground v.1.13,2013-10-20 04:00:00,
2013-10-20 00:30:00,50.8,48.3,29.49,SW,217,8.0,8.0,91,0.11,,,0.09,Wunderground v.1.13,2013-10-20 04:30:00,
2013-10-20 01:00:00,50.2,47.7,29.50,SW,222,5.0,8.0,91,0.04,,,0.11,Wunderground v.1.13,2013-10-20 05:00:00,
2013-10-20 01:30:00,49.1,45.7,29.51,SSW,204,8.0,9.0,88,0.00,,,0.11,Wunderground v.1.13,2013-10-20 05:30:00,
2013-10-20 02:00:00,48.3,45.2,29.52,SW,215,6.0,6.0,89,0.00,,,0.11,Wunderground v.1.13,2013-10-20 06:00:00,
2013-10-20 02:30:00,47.9,44.5,29.54,SW,231,7.0,7.0,88,0.00,,,0.11,Wunderground v.1.13,2013-10-20 06:30:00,
2013-10-20 03:00:00,47.6,43.0,29.55,SSW,209,6.0,7.0,84,0.00,,,0.11,Wunderground v.1.13,2013-10-20 07:00:00,
2013-10-20 03:30:00,47.4,43.1,29.56,SSW,203,6.0,13.0,85,0.00,,,0.11,Wunderground v.1.13,2013-10-20 07:30:00,
2013-10-20 04:00:00,47.4,42.8,29.57,SSW,208,8.0,9.0,84,0.00,,,0.11,Wunderground v.1.13,2013-10-20 08:00:00,
2013-10-20 04:30:00,47.3,43.0,29.58,WSW,237,5.0,8.0,85,0.00,,,0.11,Wunderground v.1.13,2013-10-20 08:30:00,
2013-10-20 05:00:00,47.3,42.4,29.59,SW,215,6.0,6.0,83,0.00,,,0.11,Wunderground v.1.13,2013-10-20 09:00:00,
2013-10-20 05:30:00,47.1,42.5,29.60,SW,231,6.0,6.0,84,0.00,,,0.11,Wunderground v.1.13,2013-10-20 09:30:00,
2013-10-20 06:00:00,46.4,41.5,29.61,SW,217,6.0,7.0,83,0.00,,,0.11,Wunderground v.1.13,2013-10-20 10:00:00,
2013-10-20 06:30:00,45.1,40.6,29.63,SW,231,6.0,6.0,84,0.00,,,0.11,Wunderground v.1.13,2013-10-20 10:30:00,
2013-10-20 07:00:00,44.3,40.1,29.64,WSW,240,7.0,7.0,85,0.00,,,0.11,Wunderground v.1.13,2013-10-20 11:00:00,
2013-10-20 07:30:00,43.9,39.7,29.65,SW,230,5.0,5.0,85,0.00,,,0.11,Wunderground v.1.13,2013-10-20 11:30:00,
2013-10-20 08:00:00,43.9,39.7,29.67,SW,221,5.0,5.0,85,0.00,,,0.11,Wunderground v.1.13,2013-10-20 12:00:00,
2013-10-20 08:30:00,45.1,39.9,29.68,SW,236,6.0,7.0,82,0.00,,,0.11,Wunderground v.1.13,2013-10-20 12:30:00,
2013-10-20 09:00:00,46.4,39.9,29.68,SSW,209,6.0,6.0,78,0.00,,,0.11,Wunderground v.1.13,2013-10-20 13:00:00,
2013-10-20 09:30:00,47.7,39.5,29.69,SW,218,6.0,6.0,73,0.00,,,0.11,Wunderground v.1.13,2013-10-20 13:30:00,
2013-10-20 10:00:00,49.4,38.5,29.71,WSW,244,8.0,9.0,66,0.00,,,0.11,Wunderground v.1.13,2013-10-20 14:00:00,
2013-10-20 10:30:00,50.2,37.7,29.72,West,267,5.0,5.0,62,0.00,,,0.11,Wunderground v.1.13,2013-10-20 14:30:00,
2013-10-20 11:00:00,50.8,35.7,29.73,North,355,8.0,8.0,56,0.00,,,0.11,Wunderground v.1.13,2013-10-20 15:00:00,
2013-10-20 11:30:00,51.3,36.1,29.73,SSW,193,7.0,7.0,56,0.00,,,0.11,Wunderground v.1.13,2013-10-20 15:30:00,
2013-10-20 12:00:00,52.2,35.1,29.74,WSW,239,7.0,13.0,52,0.00,,,0.11,Wunderground v.1.13,2013-10-20 16:00:00,
2013-10-20 12:30:00,53.6,33.8,29.74,West,269,7.0,10.0,47,0.00,,,0.11,Wunderground v.1.13,2013-10-20 16:30:00,
2013-10-20 13:00:00,54.5,31.9,29.75,SW,226,7.0,12.0,42,0.00,,,0.00,Wunderground v.1.13,2013-10-20 17:00:00,
2013-10-20 13:30:00,55.0,31.7,29.75,SW,232,8.0,8.0,41,0.00,,,0.00,Wunderground v.1.13,2013-10-20 17:30:00,
2013-10-20 14:00:00,55.3,33.2,29.75,West,265,6.0,8.0,43,0.00,,,0.00,Wunderground v.1.13,2013-10-20 18:00:00,
2013-10-20 14:30:00,55.0,34.6,29.76,West,281,5.0,5.0,46,0.00,,,0.00,Wunderground v.1.13,2013-10-20 18:30:00,
2013-10-20 15:30:00,55.9,31.9,29.77,WSW,256,7.0,7.0,40,0.00,,,0.00,Wunderground v.1.13,2013-10-20 19:30:00,
2013-10-20 16:00:00,56.5,33.7,29.78,WSW,254,7.0,18.0,42,0.00,,,0.00,Wunderground v.1.13,2013-10-20 20:00:00,
2013-10-20 16:30:00,56.2,34.0,29.79,WSW,239,4.0,8.0,43,0.00,,,0.00,Wunderground v.1.13,2013-10-20 20:30:00,
2013-10-20 17:00:00,56.0,33.8,29.79,WSW,244,6.0,8.0,43,0.00,,,0.00,Wunderground v.1.13,2013-10-20 21:00:00,
2013-10-20 17:30:00,54.7,34.3,29.80,SW,224,5.0,5.0,46,0.00,,,0.00,Wunderground v.1.13,2013-10-20 21:30:00,
2013-10-20 18:00:00,53.3,34.6,29.81,SW,218,2.0,2.0,49,0.00,,,0.00,Wunderground v.1.13,2013-10-20 22:00:00,
2013-10-20 18:30:00,51.7,35.1,29.82,SW,223,1.0,1.0,53,0.00,,,0.00,Wunderground v.1.13,2013-10-20 22:30:00,
2013-10-20 19:00:00,50.7,35.6,29.84,WSW,248,1.0,1.0,56,0.00,,,0.00,Wunderground v.1.13,2013-10-20 23:00:00,
2013-10-20 19:30:00,49.5,36.2,29.85,WSW,248,1.0,1.0,60,0.00,,,0.00,Wunderground v.1.13,2013-10-20 23:30:00,
2013-10-20 20:00:00,47.1,36.3,29.86,WSW,248,0.0,0.0,66,0.00,,,0.00,Wunderground v.1.13,2013-10-21 00:00:00,
2013-10-20 20:30:00,47.3,36.9,29.87,WSW,248,0.0,0.0,67,0.00,,,0.00,Wunderground v.1.13,2013-10-21 00:30:00,
2013-10-20 21:00:00,45.8,36.9,29.87,WSW,248,0.0,0.0,71,0.00,,,0.00,Wunderground v.1.13,2013-10-21 01:00:00,
2013-10-20 21:30:00,46.1,37.9,29.88,WSW,248,0.0,0.0,73,0.00,,,0.00,Wunderground v.1.13,2013-10-21 01:30:00,
2013-10-20 22:00:00,45.1,37.6,29.88,WSW,248,0.0,0.0,75,0.00,,,0.00,Wunderground v.1.13,2013-10-21 02:00:00,
2013-10-20 22:30:00,43.8,37.7,29.89,WSW,248,1.0,1.0,79,0.00,,,0.00,Wunderground v.1.13,2013-10-21 02:30:00,
2013-10-20 23:00:00,43.2,37.8,29.90,WSW,248,0.0,0.0,81,0.00,,,0.00,Wunderground v.1.13,2013-10-21 03:00:00,
2013-10-20 23:30:00,42.5,37.4,29.90,WSW,248,0.0,0.0,82,0.00,,,0.00,Wunderground v.1.13,2013-10-21 03:30:00,